リニア彗星

C/2002 A2 ( LINEAR )

English version
Home page
Updated on July 15, 2004

---------------------------------------------------------------------

・ プロフィール

発見日 2002年1月8日
発見光度 18.4等
発見者 Lincoln Laboratory Near-Earth Asteroid Research project

・ 軌道要素

Epoch 2001 Nov. 27.0 TT = JDT 2452240.5
T 2001 Dec.  9.94897 TT                                 MPC
q   4.7087130            (2000.0)            P               Q
n   0.01286048     Peri.   19.45318     -0.19308474     -0.95045812
a  18.0425537      Node    82.27174     +0.86450888     -0.28222461
e   0.7390218      Incl.   14.23188     +0.46405030     +0.13030210
P  76.64

・ 星図

・ 光度変化

        m1 = 8.7 + 5 logΔ + 10.0 log r

---------------------------------------------------------------------

軌道要素は Dr. Brian G. Marsden の計算によるもので、 M.P.E.C. 2003-D23 に掲載されたものです。
星図は StellaNavigator Ver.2.0 for Windows (アストロアーツ 編著 / アスキー出版局刊) で作成したものです。
光度グラフはComet for Windowsで作成したものです。

---------------------------------------------------------------------

Copyright(C) Seiichi Yoshida (comet@aerith.net). All rights reserved.